Reflectivity
-20 -20 -20 -20 -20 -20 -20 -20 -20 -20 -20 -20 -20 -20 -20 -20 -20 -20 -20 -20 -20 -20 -20 -20 -20 -20 -20 -20 -20 -20 -20 -20 -20 -13 -7 -20 -19 4 11 10 11 -6 -10 6
-20 -20 -20 -20 -20 -20 -20 -20 -20 -20 -20 -20 -20 -20 -20 -20 -20 -20 -20 -20 -9 -15 -20 -20 -20 -20 -20 -20 -20 -20 -20 -20 -20 17 -20 -18 -11 -6 -3 8 11 8 12 2
-20 -20 -20 -20 -20 -20 -20 -20 -20 -20 -20 -20 -20 -20 -20 -20 -20 -20 -16 -4 -1 -20 -10 -20 -20 -20 -20 -20 -20 -20 -20 -6 15 13 -20 19 28 2 -10 -10 -18 -20 -16 -5
-20 -20 -20 -20 -20 -20 -20 -20 -20 -20 -20 -20 -20 -20 -20 -20 -20 -20 -19 0 -20 -20 -11 -20 -20 -20 -20 -20 -20 -20 -17 3 0 -13 5 33 35 27 37 -19 5 -19 7 13
-20 -20 -20 -20 -20 -20 -20 -20 -20 -20 -20 -20 -14 -20 -20 -20 -20 -20 -20 -20 -20 -11 -20 -20 -20 -20 -20 -20 -20 6 10 -20 -20 -12 -7 13 2 -3 -5 -9 6 13 15 32
-20 -20 -20 -20 -20 -20 -20 -9 -20 -20 -20 -20 -20 -20 -20 -20 -20 -20 -20 -20 -20 1 -14 -18 -20 -20 -20 -19 -19 -20 -20 -20 -20 -20 -20 -18 -12 -17 -19 -18 -9 29 23 24
-19 -20 -20 -20 -20 -20 -20 -8 -16 -20 -20 -20 -20 -20 -20 -20 -20 -20 -20 -20 -20 -10 -8 -12 -8 -10 -18 -7 -20 -19 -20 -20 -15 -20 -17 -13 9 24 20 18 15 12 14 16
-20 -20 -20 -20 -20 -20 -20 -16 -20 -10 -20 -20 -20 -20 -20 -20 -20 -14 -20 -20 -20 -20 -20 -20 -10 -19 -2 -20 -20 -20 -20 -8 5 9 5 12 -5 17 13 1 0 3 -4 -1
-20 -20 -20 -20 -20 -20 -20 -20 -1 -20 -20 -20 -20 -20 -20 -20 -20 -20 -20 -20 -20 -20 -20 -20 3 -11 -20 -16 -19 -7 -1 -7 -8 -3 -0 20 10 14 13 8 -5 -20 -20 -20
-20 -20 -20 -20 -20 -20 -20 -19 -6 -15 -20 -20 -20 -20 -20 -20 -20 -20 -20 -20 -20 -20 -20 -20 -20 -16 -12 -20 -18 -2 -12 -15 -11 -18 -17 -19 -20 -20 -20 -20 -20 -20 -20 -20
-20 -20 -20 -20 -19 -18 -20 -20 -20 -20 -20 -20 -20 -20 -20 -20 -20 -20 -20 -20 -20 -20 -20 -20 -20 -20 -20 -20 -20 -16 -8 -12 -20 -20 -20 -20 -20 -20 -20 -20 -20 -20 -20 -20
-20 -20 -20 -20 -20 -20 -20 -20 -20 -20 -20 -20 -20 -20 -20 -20 -20 -18 -20 -20 -20 -20 -20 -20 -20 -20 -20 -20 -20 -20 -20 -20 -20 -20 -20 -20 -20 -20 -20 -20 -20 -20 -20 -20
-20 -20 -20 -20 -20 -20 -20 -20 -20 -20 -20 -20 -20 -20 -20 -20 -20 16 20 -20 -20 -20 -20 -20 -20 -20 -20 -20 -20 -20 -20 -20 -20 -20 -20 -20 -20 -20 -20 -20 -20 -20 -20 -20
-20 -20 -20 -20 -20 -20 -20 -20 -20 -20 -20 -20 -20 -20 -20 -20 -19 10 14 -16 -20 -20 -20 -20 -20 -20 -20 -20 -20 -20 -20 -20 -20 -20 -20 -20 -20 -20 -20 -20 -20 -20 -20 -20
-20 -20 -20 -20 -20 -20 -20 -20 -20 -20 -20 -20 -20 -20 -20 -20 -20 -6 21 15 -15 -20 -20 -20 -20 -20 -20 -20 -20 -20 -20 -20 -20 -20 -20 -20 -20 -20 -20 -20 -20 -20 -20 -20
-16 -4 -5 0 -4 -20 -20 -20 -20 -20 -20 -20 -20 -20 -20 -20 -20 -5 21 23 13 6 -20 -19 -9 -20 -20 -20 -20 -20 -20 -20 -20 -20 -20 -20 -20 -20 -20 -20 -20 -20 -20 -20
-20 -20 -20 -20 -20 -20 -20 -20 -20 -20 -20 -20 -20 -20 -20 -20 -8 17 14 15 25 25 9 -20 0 -20 -20 -20 -20 -20 -20 -20 -20 -20 -20 -20 -20 -20 -20 -20 -20 -20 -20 -20
-20 -20 -20 -20 -20 -20 -20 -20 -20 -20 -20 -20 -20 -20 -20 -20 -7 16 19 20 24 17 25 -13 -17 -3 -20 -20 -20 -20 -20 -20 -20 -20 -20 -20 -20 -20 -20 -20 -20 -20 -20 -20
-20 -19 -3 -10 -20 -20 -20 -20 -20 -20 -20 -20 -20 -20 -20 -16 -5 2 8 -2 17 29 27 -2 -3 -19 -10 -20 -20 -20 -20 -20 -20 -20 -20 -20 -20 -20 -20 -20 -20 -20 -20 -20
7 8 9 -18 -20 -20 -19 -20 -11 -20 -15 -19 -12 -10 -1 -1 -6 -3 -0 -2 20 27 29 12 -5 -15 -12 -20 -20 -20 -20 -20 -20 -20 -20 -20 -20 -20 -20 -20 -20 -20 -20 -20
12 6 -16 -19 2 0 -8 15 -3 -8 5 7 -11 -3 16 -4 15 -6 -13 -12 -6 9 3 19 20 -1 -20 -20 -20 -20 -20 -20 -20 -20 -20 -20 -20 -20 -20 -20 -20 -20 -20 -20
18 25 26 27 26 21 12 -6 3 -12 3 12 16 24 23 16 3 -8 -1 0 -3 10 -16 -17 -19 -0 -20 -20 -20 -20 -20 -20 -20 -20 -20 -20 -20 -20 -20 -20 -20 -20 -20 -20
14 5 3 15 25 32 29 19 5 4 -6 15 -1 -13 -20 -20 -20 -20 -20 -19 -19 -20 -20 -20 -4 -19 -20 -20 -20 -20 -20 -20 -20 -20 -20 -20 -20 -20 -20 -20 -20 -20 -20 -20
7 6 3 4 -1 -1 -2 27 27 24 24 3 -20 -20 -20 -20 -20 -20 -20 -20 -20 -20 -20 -20 -20 -20 -20 -20 -20 -20 -20 -20 -20 -20 -20 -20 -20 -20 -20 -20 -20 -20 -20 -20
-20 -20 -19 -12 0 8 1 -4 -1 -19 -15 15 25 32 25 6 -0 -19 4 -15 -20 -20 -20 -20 -20 -20 -20 -20 -20 -20 -20 -20 -20 -20 -20 -20 -20 -20 -20 -20 -20 -20 -20 -20
-20 -20 -20 -20 -20 -20 -20 -20 -20 -20 -20 -20 -20 -19 -2 13 23 22 -6 -19 12 -4 -20 -20 -20 -20 -20 -20 -20 -20 -20 -20 -20 -20 -20 -20 -20 -20 -20 -20 -20 -20 -20 -20
-20 -20 -20 -20 -20 -20 -20 -20 -20 -20 -20 -20 -20 -20 -20 -20 4 12 1 -20 5 -4 -20 -8 -14 -20 -20 -20 -20 -20 -20 -20 -20 -20 -20 -20 -20 -20 -20 -20 -20 -20 -20 -20
Wind_Speed
1 2 2 4 5 8 7 5 7 4 7 7 8 6 8 7 8 6 3 4 5 5 6 6 7 8 8 7 7 6 6 8 8 8 9 11 13 12 11 12 12 13 15 14
2 3 4 4 7 9 9 5 10 9 19 12 14 7 7 8 6 3 2 1 4 5 5 3 4 5 6 8 8 6 8 10 10 11 11 13 13 13 14 14 14 15 14 14
3 3 3 4 7 9 6 5 7 7 11 10 6 7 7 4 1 1 3 3 3 4 3 3 4 2 6 8 7 7 9 11 11 12 14 13 11 13 13 15 14 14 12 12
2 4 1 5 3 5 10 7 11 9 12 12 10 5 1 3 1 2 4 3 3 3 3 4 4 5 7 6 8 8 8 9 9 10 14 12 12 13 10 12 13 11 10 10
2 2 6 1 1 4 4 2 6 7 10 7 3 2 0 3 2 4 4 4 4 3 4 5 5 5 7 8 7 7 7 7 7 9 13 11 11 10 9 10 11 9 8 9
1 1 2 3 0 1 2 1 1 4 4 7 2 2 4 5 4 6 5 4 5 5 6 6 5 7 8 9 8 8 7 7 8 8 11 12 10 10 9 10 9 7 7 6
2 2 7 6 5 2 3 2 5 3 8 7 5 4 4 6 5 6 5 5 6 5 6 5 6 8 9 7 8 6 8 9 9 9 10 10 10 8 8 8 7 6 7 4
3 1 6 3 1 3 3 2 2 5 4 5 1 5 5 6 7 7 7 6 7 6 6 6 7 7 7 8 6 7 8 9 8 8 8 7 9 5 6 7 7 6 6 5
8 7 5 3 4 4 1 4 4 3 3 4 4 5 6 6 8 7 6 6 6 6 7 6 7 7 8 6 7 8 7 8 8 7 7 5 4 5 5 5 5 4 4 3
1 2 6 7 7 7 4 7 2 3 3 2 3 6 6 7 7 7 6 7 7 7 8 7 7 8 6 8 8 8 7 7 6 6 5 5 4 4 4 4 4 3 3 3
5 8 7 5 4 5 3 1 1 3 2 5 4 6 7 7 8 8 7 6 6 7 7 7 7 7 7 7 7 8 6 6 5 5 5 5 4 4 4 2 3 3 3 3
5 4 1 8 4 4 4 3 2 2 3 2 5 7 7 7 7 9 9 6 6 7 8 8 7 7 6 6 6 7 6 4 4 4 4 4 4 4 10 9 10 10 7 3
4 4 5 9 8 3 4 3 1 2 2 3 3 5 7 6 8 11 10 10 7 8 8 8 7 7 6 5 5 6 6 5 5 5 4 4 3 4 4 5 10 9 7 6
4 7 2 4 4 7 5 3 2 1 2 2 4 5 7 7 10 10 10 9 9 8 8 8 8 7 6 6 6 7 6 10 4 4 4 3 3 3 3 2 1 2 6 5
6 4 6 9 6 6 2 2 2 3 2 0 2 6 8 10 9 8 7 8 10 8 7 7 8 6 6 6 6 7 5 4 4 4 4 4 4 4 3 3 3 1 2 4
10 9 9 5 6 5 3 4 4 4 3 2 4 5 6 8 9 8 8 9 11 9 8 8 7 6 6 7 7 5 5 11 7 4 4 4 3 3 3 3 2 0 1 2
7 9 9 10 7 7 8 7 7 5 4 6 6 6 8 9 9 8 8 7 7 8 7 7 8 6 6 7 8 5 4 5 9 4 4 3 3 3 2 2 1 0 2 3
6 9 9 10 10 10 10 7 6 6 6 6 6 7 7 9 9 9 9 8 6 7 5 6 8 8 6 6 6 5 5 5 4 4 4 3 3 3 2 2 1 1 2 3
7 9 9 10 9 8 8 5 5 5 5 7 7 7 7 7 8 9 10 10 9 8 6 7 14 11 8 8 8 5 5 5 4 3 3 4 3 2 2 2 2 2 2 2
8 8 9 8 6 4 3 2 4 5 5 6 6 6 7 7 8 9 9 9 7 4 9 9 9 8 7 10 12 5 5 5 5 4 4 3 3 3 2 3 3 2 2 3
8 8 9 9 7 5 4 2 3 4 4 5 6 6 7 7 7 9 9 7 7 10 10 13 7 6 5 8 7 5 5 5 5 4 3 3 3 2 3 3 3 3 3 2
7 7 8 9 7 4 4 3 1 3 4 4 4 5 6 6 7 6 2 4 5 16 9 7 6 12 8 13 5 5 5 5 4 4 3 3 3 3 3 3 3 3 3 2
7 8 7 7 6 5 4 4 3 1 3 4 5 5 5 4 5 6 5 4 5 11 5 5 12 17 17 5 5 5 5 5 4 4 4 3 3 3 3 3 3 3 3 3
7 7 6 6 5 6 6 5 4 2 1 2 4 5 6 4 2 1 2 12 15 13 7 9 13 18 14 5 5 5 4 4 4 4 3 6 3 3 3 3 3 3 3 6
5 5 4 6 6 5 4 4 3 3 2 2 2 3 4 3 3 4 4 6 15 10 6 17 18 18 5 5 5 5 4 4 4 4 4 4 3 3 3 3 4 4 4 4
6 5 5 5 3 3 3 3 3 3 1 1 2 2 3 3 3 4 4 8 8 10 6 7 6 7 5 5 5 5 5 5 5 4 5 4 4 3 3 4 4 3 4 4
3 7 4 4 3 5 5 4 3 4 3 2 3 3 3 3 4 4 7 6 6 6 7 5 6 8 6 6 5 5 4 4 6 4 3 3 3 3 4 4 4 4 3 4
Wind_Direction
110 130 160 180 174 178 188 174 183 232 223 250 260 271 274 281 299 318 39 38 26 35 19 8 347 356 341 354 4 2 67 86 87 94 97 96 97 95 94 97 98 103 101 98
58 23 216 226 212 197 215 224 256 272 287 270 272 267 270 273 287 341 35 54 57 56 41 9 8 357 348 11 13 27 63 73 79 82 82 85 89 96 95 92 93 92 89 94
293 313 318 295 216 196 186 205 200 214 243 294 279 251 257 266 45 332 141 117 86 67 69 54 61 48 44 31 35 48 72 72 79 85 82 79 86 90 94 98 98 91 92 97
246 356 10 245 176 179 197 238 215 256 270 277 284 280 152 77 129 136 122 118 98 96 92 60 63 74 75 66 54 45 55 78 92 96 94 90 87 87 94 99 96 94 93 88
99 243 290 359 128 143 174 335 185 210 254 277 301 11 65 107 130 96 103 102 95 87 98 91 82 69 77 64 59 62 56 59 73 96 97 98 94 92 90 90 82 82 85 89
59 78 247 240 189 291 215 353 322 189 301 303 176 293 257 167 116 99 102 113 111 89 84 79 66 74 66 72 69 71 76 75 74 82 92 94 93 89 84 85 91 93 105 93
208 245 285 252 292 198 93 229 308 326 303 286 217 210 137 131 99 108 111 111 98 91 89 83 75 83 82 79 80 82 84 79 74 74 86 94 96 93 93 93 103 112 103 120
183 195 289 189 265 162 196 288 258 290 281 298 129 132 135 126 122 126 123 114 109 96 86 84 86 97 95 85 87 91 90 92 84 85 85 81 93 124 120 119 114 101 105 83
176 212 239 233 233 257 209 260 281 271 279 292 166 175 149 145 143 144 135 118 116 114 102 89 97 107 109 100 100 94 89 88 92 86 89 106 110 92 91 89 97 99 95 90
329 269 239 259 264 254 256 244 236 242 277 254 221 157 150 150 149 141 139 137 128 118 111 110 104 106 110 116 114 108 105 99 101 106 96 75 72 82 94 91 94 102 111 99
257 288 292 243 247 268 266 216 274 283 247 255 191 165 153 160 155 149 140 139 137 127 122 121 123 120 125 125 128 118 117 116 101 85 92 86 72 95 90 78 121 115 99 114
230 252 247 272 281 308 303 290 287 269 280 259 189 164 152 156 152 146 141 136 131 128 127 128 127 125 127 137 146 141 122 119 124 108 95 90 99 72 81 87 89 97 118 119
268 333 254 275 283 329 302 342 347 289 287 251 179 158 148 147 150 152 144 142 148 148 138 137 136 140 152 149 140 129 128 127 114 114 114 115 97 108 109 39 74 77 65 51
18 343 345 30 323 319 324 10 23 32 6 294 176 148 140 139 151 152 155 153 144 138 142 149 149 157 156 141 127 128 129 138 123 128 128 125 129 122 126 136 116 8 14 25
357 355 255 275 289 284 304 304 304 291 299 256 173 147 144 146 152 141 130 141 142 139 148 143 155 157 148 137 133 139 130 128 131 127 129 130 120 114 107 94 82 49 344 352
316 310 290 304 299 295 271 279 256 252 219 208 180 162 158 142 134 137 141 147 149 166 165 159 162 156 143 137 134 129 135 146 142 132 125 120 117 111 102 103 116 166 326 312
321 325 332 320 314 299 274 256 238 232 199 196 187 143 132 130 133 142 147 150 149 154 157 159 157 143 146 148 146 143 138 139 146 120 125 126 127 130 134 139 145 231 290 299
285 279 281 268 274 283 283 253 230 213 197 183 154 147 142 154 162 156 148 136 126 127 148 151 145 136 143 152 143 143 138 130 129 136 135 131 133 134 148 139 171 238 278 303
311 305 302 289 269 267 272 253 196 176 149 156 154 162 158 153 152 152 148 152 155 161 180 153 153 145 150 164 144 135 129 129 131 130 138 146 120 137 135 158 220 245 268 290
332 329 321 324 341 339 342 40 118 125 139 145 136 142 149 150 149 153 160 172 177 156 147 155 149 144 150 160 148 130 129 138 144 146 144 146 159 160 182 222 226 252 268 274
337 335 346 350 347 4 17 66 122 147 147 148 160 165 160 150 154 155 158 172 174 153 155 158 157 152 147 146 140 129 137 145 152 164 170 165 161 169 197 221 247 259 268 262
346 350 349 347 346 355 6 16 105 121 141 144 134 140 150 160 160 162 164 172 148 165 160 160 158 160 158 150 134 137 146 151 156 155 156 164 172 186 214 228 250 268 270 262
350 349 348 348 346 345 355 8 7 100 174 175 172 171 172 171 164 157 174 190 153 165 145 149 162 165 162 134 139 146 151 154 159 167 175 178 184 193 205 230 248 249 265 274
348 350 345 341 357 23 15 354 332 296 244 173 176 168 157 155 161 190 162 163 161 163 161 158 168 169 147 142 143 149 149 158 167 168 173 187 188 203 220 234 259 258 254 284
334 326 336 0 10 4 347 343 345 4 330 248 203 186 173 181 172 175 154 155 169 157 152 171 170 169 139 146 150 156 163 168 175 172 178 186 197 208 223 232 247 255 253 250
346 349 338 347 360 349 336 344 334 321 308 271 249 203 188 173 179 149 152 161 162 166 156 167 168 139 143 152 160 165 169 180 186 179 189 198 201 216 229 242 245 251 265 267
337 355 345 344 354 350 343 342 318 308 293 243 258 224 191 175 166 144 168 167 159 156 157 148 146 150 151 165 166 170 168 177 192 185 191 201 204 214 234 241 251 256 258 263